Location: Newark
(49.1022°N, 20.8503°E)
Time: 07:33:49
(UTC+00:00)

Envisat - Pass Details

Date: 05 October 2020
Orbit: 764 x 766 km, 98.1° (Epoch: 21 October)

Event Time Altitude Azimuth Distance (km) Brightness Sun altitude
Rises 16:54:05 0° 205° (SSW) 3,221 6.5 -8.6°
Reaches altitude 10° 16:56:56 10° 221° (SW) 2,300 6.0 -9.1°
Maximum altitude 17:00:44 21° 270° (W) 1,673 6.0 -9.7°
Drops below altitude 10° 17:04:33 10° 318° (NW) 2,312 6.2 -10.4°
Sets 17:07:25 0° 335° (NNW) 3,244 6.7 -10.8°
